www.pogodaiklimat.ru
Время
и дата
23:25 30.12
23:53 30.12
00:05 31.12
00:12 31.12
00:16 31.12
00:23 31.12
00:39 31.12
00:46 31.12
00:53 31.12
01:01 31.12
01:08 31.12
01:15 31.12
01:53 31.12
02:53 31.12
03:10 31.12
03:34 31.12
03:38 31.12
03:53 31.12
04:00 31.12
04:25 31.12
04:38 31.12
04:53 31.12
05:53 31.12
06:53 31.12
06:58 31.12
07:19 31.12
07:53 31.12
08:53 31.12
09:05 31.12
09:16 31.12
09:27 31.12
09:36 31.12
09:46 31.12
09:53 31.12
10:04 31.12
10:16 31.12
10:53 31.12
11:53 31.12
12:53 31.12
13:53 31.12
14:53 31.12
15:02 31.12
15:50 31.12
15:53 31.12
16:11 31.12
16:35 31.12
16:53 31.12
17:53 31.12
Ветер
(напр.,м/с)
Видим. Явления Облачность Т
(С)
Тd
(С)
f
(%)
Тe
(С)
Тes
(С)
Комфортность P
(гПа)
Po
(гПа)
Тmin
(С)
Tmax
(С)
R
(мм)
R24
(мм)
S
(см)
штиль 0 5 км дымка, туман поземный 8/5 60 м
[Ci]
+12.8 +12.2 96 +12 +12 990.1
штиль 0 0 м туман поземный 8/2 60 м
[Ac Ci]
+12.8 +12.2 96 +12 +12 1014.1 989.8
штиль 0 3 км дымка 5/2 30 м
[Ac]
+12.2 +12.2 100 +11 +11 989.8
штиль 0 2 км дымка 5/5 30 м
[Ac]
+12.2 +11.7 97 +12 +12 989.8
штиль 0 3 км дымка 5/5 30 м +12.2 +11.7 97 +12 +12 989.8
штиль 0 11 км 2/2 30 м +12.2 +11.7 97 +12 +12 989.8
штиль 0 4 км дымка 5/5 30 м
[Ac]
+12.2 +11.7 97 +12 +12 990.1
штиль 0 10 км дымка 5/5 60 м
[Ac]
+11.7 +11.1 96 +11 +11 989.8
штиль 0 2 км дымка 8/8 60 м
[Ac]
+12.2 +11.7 97 +12 +12 1014.3 989.8 +11.7 +18.3
штиль 0 6 км дымка 8/8 60 м
[Ac]
+12.2 +11.7 97 +12 +12 989.8
штиль 0 10 км дымка 10/8 30 м
[Ac]
+12.2 +11.7 97 +12 +12 989.8
штиль 0 10 км дымка 10/5 30 м
[Ac]
+11.7 +11.7 100 +11 +11 989.8
штиль 0 13 км 10/0 3000 м
[Ac]
+12.8 +12.2 96 +12 +12 1014.1 989.8
Ю 1 13 км 8/2 150 м
[Ac]
+12.8 +12.2 96 +12 +12 1013.9 989.8
штиль 0 13 км 8/8 90 м
[Ac]
+12.8 +12.2 96 +12 +12 989.8
штиль 0 2 км дымка 10/10 90 м +13.3 +12.8 97 +13 +13 989.5
штиль 0 1 км дымка 10/10 60 м +13.3 +12.8 97 +13 +13 989.5
З 1 800 м туман ?/? +13.3 +12.8 97 +12 +12 1014.7 990.4
штиль 0 2 км дымка 10/10 60 м +13.3 +12.8 97 +13 +13 989.8
штиль 0 1 км дымка ?/? +13.3 +12.8 97 +13 +13 989.8
штиль 0 400 м туман ?/? +13.9 +13.3 96 +13 +13 989.8
штиль 0 400 м туман ?/? +13.9 +13.3 96 +13 +13 1013.9 989.8
штиль 0 400 м туман ?/? +13.9 +13.3 96 +13 +13 1013.9 989.5
штиль 0 400 м туман ?/? +13.9 +13.3 96 +13 +13 1014.4 990.1 +11.7 +13.9 0.3
штиль 0 800 м туман ?/? +13.9 +13.3 96 +13 +13 989.8
штиль 0 0 м туман поземный, дымка 10/10 120 м +13.9 +13.3 96 +13 +13 989.8
штиль 0 5 км дымка 10/10 150 м +13.9 +13.9 100 +13 +13 1014.5 990.1
штиль 0 5 км слабый дождь, дымка 10/10 210 м
[Cb]
+15.0 +14.4 96 +15 +15 1014.5 990.1
Ю 1 5 км дымка 8/8 240 м
[Ac Cb]
+15.0 +14.4 96 +15 +15 990.1
Ю 1 3 км дождь, дымка 10/8 240 м
[Ac Cb]
+15.6 +15.0 96 +15 +15 990.4
ЮВ 2 0 м гроза с дождем, дымка 10/8 240 м
[Ac]
+15.6 +15.0 96 +15 +15 990.8
Ю 1 5 км гроза со слабым дождем, дымка 10/8 240 м
[Ac Cb]
+15.6 +13.9 90 +15 +15 990.8
ЮЗ 1 1 км гроза с сильным дождем, дымка 10/8 240 м
[Ac Cb]
+13.9 +12.2 89 +13 +13 990.8
Ю 2 3 км гроза с сильным дождем, дымка 10/8 240 м
[Ac Cb]
+13.9 +12.8 93 +12 +12 1015.1 990.8 9.9
Ю 1 13 км слабый дождь, дымка 10/8 240 м
[Ac Cb]
+14.4 +13.3 93 +13 +14 990.8
ЮВ 1 10 км дымка 10/10 480 м
[Cb]
+14.4 +13.3 93 +13 +13 990.8
штиль 0 11 км 10/10 480 м +16.1 +14.4 90 +16 +16 1014.8 990.4
штиль 0 11 км 10/10 300 м +16.7 +14.4 86 +17 +17 1014.1 989.8
Ю 1 11 км слабый дождь 10/10 300 м +17.2 +15.0 87 +18 +18 1012.8 988.5 +13.9 +17.2 11.7
Ю 1 8 км дымка 10/10 240 м +17.8 +16.1 90 +18 +18 1011.8 987.5
Ю 1 10 км дымка 10/10 240 м +18.3 +16.7 90 +19 +19 1011.6 987.1
Ю 1 10 км дымка 10/10 240 м +18.9 +16.7 87 +20 +20 987.1
Ю 1 10 км дымка 10/10 270 м +19.0 +17.0 88 +21 +21 комфорт 987.1
нст 1 10 км дымка 10/10 270 м +19.4 +17.2 87 +22 +22 комфорт 1011.4 987.1
Ю 1 11 км 8/8 300 м +19.4 +17.2 87 +22 +22 комфорт 987.5
Ю 2 11 км 8/5 300 м
[Ci]
+19.4 +17.2 87 +21 +22 комфорт 987.1
Ю 1 13 км 8/5 600 м
[Ci]
+19.4 +17.2 87 +22 +23 комфорт 1011.7 987.5
штиль 0 11 км 8/5 600 м
[Ci]
+17.8 +16.7 93 +18 +18 1011.6 987.5
Местоположение метеостанции Lovell Field: широта 35.0333 долгота -85.2000 высота над уровнем моря 207 м.
В архиве по умолчанию представлена погода в Чаттануге за последние 1-2 суток. Обновление информации о фактической погоде в базе происходит ежечасно! Архивные данные за месяц целиком и за предыдущие месяцы Вы можете получить, выбрав интересующий диапазон дат из раскрывающегося списка и нажав кнопку "Ввод!".
Внимание! Архив погоды МЕТАР в базе сайта по станциям, не включенным в климатический монитор, хранится не более 60 дней. Нет смысла пытаться выбрать более раннюю дату.
*Определитесь, кто Вы:
Внимание! Время в таблицах - местное (без учета летнего времени). Для получения всемирного времени необходимо вычесть поправку, которая равна -5 ч.
Смотрите также архив погоды в соседних городах и на ближайших метеорологических станциях:
Партнеры нашего сайта:      
Пояснения к столбцам:
  • Ветер - указаны скорость ветра в м/с - средняя за 10 мин, порывы в срок и между сроками (в фигурных скобках) и направление, откуда дует ветер: С - северный,
  • СВ - северо-восточный, В - восточный, ЮВ - юго-восточный, Ю - южный, ЮЗ - юго-западный, З - западный, СЗ - северо-западный.
  • Видимость - горизонтальная дальность видимости в метрах или километрах. При видимости от 1 до 10 км при отсутствии осадков обычно наблюдается дымка, при ухудшении видимости до 1 км и менее - туман. В сухую погоду видимость может ухудшаться дымом, пылью или мглою.
  • Явления - указаны атмосферные явления, наблюдавшиеся в срок или в последний час перед сроком; фигурными скобками обозначены явления, наблюдавшиеся между сроками (за 1-3 часа до срока); квадратными скобками обозначены град или гололедные отложения с указанием их диаметра в мм.
  • Облачность - указаны через наклонную черту общая и нижняя облачность в баллах и высота нижней границы облаков в метрах; квадратными скобками обозначены формы облаков: Ci - перистые, Cs - перисто-слоистые, Cc - перисто-кучевые, Ac - высококучевые, As - высокослоистые, Sc - слоисто-кучевые, Ns - слоисто-дождевые, Cu - кучевые, Cb - кучево-дождевые. Подробнее классификацию облаков см. в Атласе облаков (PDF).
  • T - Температура воздуха - температура, измеренная на высоте 2 м над землей.
  • Td - Температура точки росы - температура, при понижении до которой содержащийся в воздухе водяной пар достигнет насыщения.
  • f - Относительная влажность воздуха - влажноcть воздуха, измеренная на высоте 2 м над землей.
  • Te - Эффективная температура - температура, которую ощущает одетый по сезону человек в тени. Характеристика душности погоды. При расчете учитывается влияние влажности воздуха и скорости ветра на теплоощущения человека.
  • Tes - Эффективная температура на солнце - температура, которую ощущает человек, с поправкой на солнечный нагрев. Характеристика знойности погоды. Зависит от высоты солнца над горизонтом, облачности и скорости ветра. Ночью, в пасмурную погоду, а также при ветре 12 м/с и более поправка равна нулю.
  • P - Атмосферное давление - приведенное к уровню моря атмосферное давление.
  • Po - Атмосферное давление - измеренное на уровне метеостанции атмосферное давление.
  • Tmin - Минимальная температура - минимум температуры воздуха на высоте 2 м над землей.
  • Tmax - Максимальная температура - максимум температуры воздуха на высоте 2 м над землей.
  • R - Количество осадков - Количество выпавших осадков за период времени, мм. При наведении курсора мыши на число - период времени, за который выпало указанное количество осадков.
  • R24 - Количество осадков - Количество выпавших осадков за 24 часа, мм.
  • S - Снежный покров - Высота снежного покрова, см. При наведении курсора мыши на число - состояние снежного покрова и степень покрытия местности в баллах.